Location: Unspecified
(0.0000°N, 0.0000°E)
Time: 07:02:32
(UTC+00:00)

Transit 4A - Pass Details

Date: 12 October 2023
Orbit: 864 x 979 km, 66.8° (Epoch: 05 December)

Event Time Altitude Azimuth Distance (km) Brightness Sun altitude
Rises 06:40:50 0° 196° (SSW) 3,550 10.9 13.4°
Reaches altitude 10° 06:43:20 10° 193° (SSW) 2,623 10.3 14.1°
Maximum altitude 06:49:26 73° 109° (ESE) 985 8.6 15.6°
Drops below altitude 10° 06:55:42 10° 25° (NNE) 2,687 10.6 17.1°
Sets 06:58:16 0° 24° (NNE) 3,643 11.2 17.8°
